Temperature
10 9 9 9 8 8 7 7 7 6 6 6 6 6 5 5 5 5 5 5 5 5 4 4 4 4 3 3 2 2 2 1 1 1 1 1 1 1 1 1 1 2 2
9 9 8 8 7 7 7 7 6 6 6 6 6 5 5 5 5 5 5 5 4 4 4 3 3 3 2 2 2 1 1 0 0 -0 -0 -0 0 0 1 1 1 2 2
8 8 7 7 7 7 6 6 6 6 6 5 5 5 5 5 5 5 4 4 4 3 3 3 2 2 2 1 1 1 0 -0 -0 -1 -1 -1 -0 0 1 1 1 2 2
7 7 6 6 6 6 6 6 6 5 5 5 5 5 5 4 4 4 4 3 3 3 2 2 1 1 1 1 0 0 -0 -0 -0 -1 -1 -1 -0 0 0 1 1 2 2
6 6 6 6 5 5 5 5 5 5 5 5 5 4 4 3 3 3 3 2 2 2 1 1 0 0 0 0 0 -0 -0 -0 -0 -0 -0 -0 -0 -0 0 0 1 1 1
6 5 5 5 5 5 5 5 5 4 4 4 4 3 3 2 2 1 1 1 1 0 0 0 0 0 0 0 0 -0 -0 -0 -0 -0 -0 -0 -0 -0 0 0 0 0 1
5 5 5 5 5 5 5 4 4 4 3 3 3 2 2 1 1 0 0 0 -0 -0 -0 0 0 -0 0 0 -0 -0 0 0 -0 -0 -0 -0 -0 0 0 0 0 0 1
4 5 5 5 5 4 4 4 3 3 2 2 2 1 1 0 0 -0 -0 -0 -0 -0 -0 -0 -0 -0 -0 -0 -0 -0 0 0 0 0 0 0 0 0 0 0 1 1 1
4 4 4 4 4 4 3 3 2 2 2 1 1 1 1 0 -0 -0 -1 -1 -1 -0 -0 -0 -0 -0 -0 -0 -0 -0 0 0 0 0 0 0 0 0 1 1 1 1 1
4 4 4 4 3 3 2 2 1 1 1 1 1 0 0 0 -0 -0 -1 -1 -1 -0 -0 -0 -0 -0 -0 0 0 0 0 0 1 1 1 1 1 1 1 1 1 1 1
4 3 3 3 3 2 2 1 1 1 1 0 0 0 0 -0 -0 -0 -1 -1 -1 -1 -0 -0 0 -0 0 0 0 1 1 1 1 1 0 0 0 0 0 0 0 0 1
3 3 3 2 2 2 1 1 1 0 0 0 -0 -0 -0 -0 -0 -0 -0 -0 -1 -0 -0 -0 0 0 0 0 0 0 0 1 0 0 0 0 -0 -0 -0 -0 -0 -0 -0
3 3 3 2 2 1 1 1 0 0 -0 -1 -1 -1 -1 -1 -1 -1 -0 -0 -0 -0 0 0 0 0 0 0 0 0 0 0 0 0 -0 -0 -0 -0 -1 -1 -1 -1 -1
3 3 3 2 2 1 1 0 0 -0 -1 -1 -1 -1 -1 -1 -1 -1 -1 -1 -0 0 0 0 0 0 0 0 0 0 0 0 0 -0 -0 -0 -0 -0 -1 -1 -1 -1 -0
4 3 3 2 2 1 1 0 -0 -0 -1 -1 -1 -1 -1 -1 -2 -1 -1 -1 -0 -0 0 0 0 0 0 0 0 0 0 0 0 0 -0 -0 -0 -0 -1 -1 -1 -1 -0
4 3 3 2 1 1 1 0 -0 -1 -1 -1 -1 -2 -2 -2 -1 -1 -1 -1 -0 -0 0 0 0 0 0 0 0 0 0 0 0 0 0 -0 -0 -0 -1 -1 -1 -1 -1
3 3 3 2 1 1 1 0 0 -0 -1 -1 -1 -1 -2 -2 -1 -1 -1 -1 -1 -0 -0 -0 -0 0 0 0 0 0 0 0 0 0 0 0 0 -0 -0 -1 -1 -1 -1
3 3 3 2 2 1 1 1 0 -0 -0 -1 -1 -1 -1 -2 -2 -1 -1 -1 -1 -1 -1 -0 -0 -0 0 0 0 0 0 1 1 1 1 0 0 -0 -0 -1 -1 -1 -1
3 3 3 2 2 2 1 1 0 0 -0 -1 -1 -1 -1 -2 -2 -2 -1 -1 -1 -1 -1 -1 -0 -0 -0 0 0 0 1 1 1 1 1 1 1 0 0 -0 -1 -1 -1
3 3 3 3 3 2 2 1 1 0 0 -0 -1 -1 -1 -2 -2 -2 -2 -2 -1 -1 -1 -1 -1 -0 -0 -0 0 0 1 1 1 1 1 1 1 1 1 0 -0 -0 -1
4 4 4 3 3 3 2 2 1 1 0 -0 -1 -1 -1 -2 -2 -2 -2 -2 -1 -1 -1 -1 -1 -0 -0 -0 -0 0 0 1 1 1 1 2 2 2 2 1 1 1 0
5 5 4 4 3 3 2 2 2 1 1 0 -0 -1 -1 -2 -2 -2 -1 -1 -1 -1 -1 -1 -1 -1 -0 -0 -0 0 0 1 1 1 2 2 2 2 2 2 2 2 2
5 5 4 4 4 3 3 2 2 1 1 0 -0 -1 -1 -1 -1 -1 -1 -1 -1 -1 -1 -1 -1 -1 -0 -0 -0 -0 0 1 1 1 2 2 2 3 3 3 2 2 2
5 5 4 4 4 3 3 2 2 1 1 1 -0 -1 -1 -1 -1 -1 -1 -1 -1 -1 -1 -1 -1 -0 -0 -0 -0 0 0 1 1 1 2 2 2 3 3 3 3 3 3
5 5 4 4 3 3 3 2 2 1 1 0 -0 -1 -1 -1 -1 -1 -1 -1 -1 -1 -1 -1 -1 -0 -0 -0 -0 0 0 1 1 2 2 2 2 3 3 3 3 3 3
5 5 4 4 3 3 2 2 2 1 1 0 -0 -1 -1 -1 -1 -1 -1 -1 -1 -1 -0 -0 -0 -0 -0 -0 0 0 1 1 1 2 2 2 3 3 3 3 3 3 3
Wind_Speed
6 6 7 5 4 3 3 5 4 2 1 2 2 3 4 5 6 6 7 8 8 8 8 8 7 7 6 6 6 6 7 9 13 13 10 11 12 13 14 17 20 19 19
6 6 5 4 3 2 4 4 3 1 1 3 4 5 6 7 6 6 7 8 7 7 8 8 8 8 7 6 6 7 8 8 11 15 12 11 13 13 13 13 14 17 15
6 6 4 4 4 4 4 3 2 2 3 4 5 6 6 6 6 6 7 8 8 9 9 9 9 9 9 7 8 8 8 10 9 12 13 11 12 13 13 14 14 11 14
6 6 5 4 4 3 3 3 3 3 4 4 5 6 6 8 10 11 11 10 10 10 10 10 10 9 9 9 9 9 10 10 10 11 11 11 11 12 12 11 10 8 9
7 6 4 2 1 2 3 3 3 4 6 6 6 7 8 8 10 11 11 11 11 11 11 10 11 13 16 13 12 10 10 9 10 10 12 11 11 10 10 9 10 9 10
6 4 2 2 2 2 2 3 5 6 6 7 7 8 8 6 6 9 10 10 11 11 11 10 11 13 15 16 19 19 17 14 12 12 12 12 13 12 11 11 10 11 9
3 2 1 1 1 3 5 6 7 7 7 6 6 6 5 3 2 5 9 10 12 10 10 10 12 13 15 12 14 18 18 20 20 16 15 15 15 13 12 12 11 12 11
2 2 2 2 4 4 6 6 6 6 6 6 5 6 5 2 2 6 11 11 11 10 10 11 12 12 14 13 14 14 14 14 15 13 12 13 12 11 11 12 12 12 10
4 5 5 5 5 6 7 7 6 5 5 5 5 5 5 2 2 6 9 11 10 11 11 12 13 13 15 16 14 14 14 13 12 12 10 10 12 13 12 9 8 7 5
6 6 6 6 6 7 7 7 6 5 5 5 5 6 6 6 4 6 9 10 11 11 12 12 13 13 15 16 12 11 11 10 8 7 6 6 7 7 8 6 5 4 3
6 6 6 5 5 7 5 4 5 5 5 5 6 6 6 8 9 8 11 10 11 12 11 10 9 14 15 15 12 8 8 8 6 5 5 5 4 4 5 6 6 4 3
5 6 6 6 7 6 4 4 4 6 6 6 7 8 7 8 9 12 15 15 14 12 10 9 9 15 15 13 9 9 10 7 4 3 4 4 4 4 4 5 6 6 5
5 4 4 5 6 6 6 6 5 5 6 7 7 8 8 8 10 14 16 16 16 11 10 14 15 14 12 8 9 11 8 5 4 4 4 4 4 4 4 3 4 4 5
3 2 4 6 6 6 5 6 5 7 7 7 7 8 8 8 9 11 11 11 12 11 10 11 12 10 8 7 7 6 4 5 4 4 4 4 4 4 4 4 4 4 3
3 4 6 7 6 5 5 5 6 6 5 5 6 7 6 8 11 15 11 9 10 11 10 6 6 6 7 6 5 5 5 5 5 4 4 4 4 4 4 4 5 5 5
7 7 6 6 6 5 3 3 2 2 3 1 2 5 7 8 13 16 17 16 15 16 9 7 7 7 8 7 6 6 5 5 5 4 4 4 4 4 5 5 6 7 7
7 7 6 6 5 4 4 4 2 3 5 4 1 8 11 12 13 16 18 16 13 14 8 8 8 8 8 8 7 6 6 6 5 5 4 4 4 5 5 6 7 7 8
7 6 5 4 4 4 4 4 5 5 4 3 2 9 13 13 13 15 17 13 11 10 9 9 8 8 8 8 7 6 6 6 6 6 5 5 5 5 6 7 8 9 9
7 5 4 4 4 4 4 4 5 5 5 6 7 9 11 11 11 13 13 9 9 9 9 9 9 8 8 8 8 7 7 6 7 6 6 5 4 5 5 7 8 10 10
3 2 3 4 5 5 5 5 5 5 5 6 7 8 8 8 8 9 8 8 8 9 9 9 9 9 9 9 8 8 8 8 8 7 6 6 4 4 5 7 7 7 8
3 3 2 4 6 6 5 6 5 5 6 6 6 6 6 7 7 8 8 8 8 8 9 9 9 9 9 8 8 9 10 9 9 9 7 6 5 4 4 5 6 6 7
5 5 6 6 6 6 6 6 7 6 7 7 6 6 6 7 6 7 7 8 8 7 7 7 7 8 8 8 8 9 9 10 10 10 9 7 6 5 6 5 5 5 6
5 7 7 6 6 6 7 7 7 7 8 8 7 7 7 7 7 7 7 8 7 7 8 8 7 8 9 10 9 7 8 9 9 10 9 7 6 6 6 7 8 7 7
8 8 8 8 8 8 8 8 8 8 9 9 8 8 8 7 7 7 7 7 6 7 9 9 8 10 12 12 11 11 11 13 13 12 11 8 7 6 6 6 7 8 8
9 9 9 9 8 8 8 8 8 9 9 9 8 8 8 8 7 7 7 6 7 7 9 10 10 11 13 14 15 14 17 19 18 16 12 6 7 7 6 7 6 7 7
10 10 9 9 8 8 8 8 8 8 8 8 8 8 8 8 8 8 7 7 7 7 9 10 12 14 15 15 16 18 19 20 22 21 13 6 6 7 6 5 7 7 7
Wind_Direction
119 106 104 108 118 133 115 112 104 88 82 266 274 284 280 270 261 256 262 271 273 275 279 283 283 282 280 279 279 280 280 283 287 291 291 292 293 295 293 291 288 281 277
110 104 106 107 103 95 96 86 94 94 314 309 308 297 289 287 284 282 285 295 303 308 312 311 305 301 297 293 288 287 285 283 283 288 289 290 289 291 287 283 285 282 275
118 117 111 107 97 71 73 70 35 0 319 303 296 297 301 310 324 339 347 349 345 335 327 319 312 308 302 298 293 286 281 280 275 280 284 285 285 285 287 286 283 280 282
100 99 89 75 76 66 56 43 2 331 313 315 325 335 346 14 33 23 9 351 343 333 323 313 307 303 298 294 289 281 279 277 274 275 278 281 281 282 283 286 291 289 290
81 82 82 70 60 59 47 11 355 352 353 3 2 6 15 47 39 22 357 342 333 318 308 303 301 300 293 286 283 280 280 279 278 276 278 280 282 284 285 289 290 294 289
67 60 52 45 47 38 14 24 28 19 14 14 13 16 23 40 47 20 355 335 318 308 305 306 305 297 300 299 292 287 282 279 278 278 281 282 284 284 286 287 289 289 287
81 82 84 75 58 37 34 41 31 17 15 14 16 22 31 81 52 343 331 320 307 305 308 308 309 309 310 302 303 302 292 283 277 276 277 279 282 284 287 286 281 278 275
150 109 77 58 57 51 50 38 34 21 13 6 20 17 358 21 229 297 316 313 309 308 308 307 307 307 308 312 309 301 292 287 281 279 273 277 282 288 286 282 280 276 269
104 86 70 58 56 54 48 30 28 15 16 3 20 357 345 356 246 304 324 322 315 317 315 313 311 310 311 314 308 298 295 293 290 284 277 280 286 289 288 284 279 275 271
87 79 69 58 59 63 50 30 13 7 17 360 2 349 346 353 357 340 334 330 327 325 317 313 311 314 314 313 309 302 300 301 308 314 308 300 298 306 317 314 311 296 284
85 81 68 46 75 80 63 37 14 6 7 2 1 356 1 2 359 357 338 336 330 321 316 316 319 322 321 321 320 315 310 308 311 315 316 322 331 346 1 8 8 358 346
83 84 76 52 45 59 57 50 34 10 12 13 6 1 359 359 0 351 338 330 327 322 318 320 324 326 327 331 339 341 337 334 329 335 348 358 1 4 8 19 23 24 22
104 102 101 94 77 51 46 42 33 25 22 15 6 359 353 351 353 348 337 330 329 329 323 324 325 328 332 335 343 346 349 354 2 12 18 13 6 4 2 9 12 9 19
96 108 112 97 89 71 47 41 40 28 22 17 8 355 348 349 354 349 340 336 337 336 330 325 325 331 339 337 341 346 353 3 8 21 19 12 6 10 18 17 12 0 7
75 70 86 80 73 68 64 45 43 60 44 19 9 352 350 353 344 336 342 345 344 337 330 334 351 354 359 1 359 358 5 12 22 21 16 14 14 23 27 23 23 20 26
51 57 67 68 60 51 56 108 104 95 168 212 330 352 1 358 345 348 349 347 347 346 354 358 0 0 1 3 1 2 15 19 16 17 15 14 19 29 39 40 41 39 39
54 47 55 59 60 49 33 31 67 179 215 226 334 13 13 6 2 357 353 348 358 2 9 5 3 1 1 2 4 9 16 16 9 8 9 14 34 46 52 54 52 52 50
62 60 55 68 64 58 47 34 35 39 43 36 51 33 16 9 10 5 357 359 7 9 6 3 1 359 360 3 3 7 11 12 9 6 7 18 45 60 64 65 64 65 63
49 44 36 54 60 60 55 46 42 39 39 37 30 24 16 7 12 11 7 11 4 3 1 0 359 359 0 1 2 6 11 10 7 6 5 15 45 70 77 82 84 80 75
108 56 5 48 59 57 54 48 42 38 39 43 38 23 11 15 16 9 7 4 3 1 358 356 357 358 0 2 4 8 10 9 8 7 3 12 35 69 87 90 93 94 92
76 123 194 55 52 42 47 48 49 46 44 49 53 45 17 23 16 6 3 1 0 357 354 353 355 359 2 4 8 10 12 9 7 2 3 11 24 51 82 92 99 103 109
16 51 54 55 61 43 40 48 44 45 45 49 54 59 53 37 21 7 3 1 359 356 352 351 354 357 360 3 10 12 12 7 1 357 358 7 19 39 63 77 83 90 98
30 46 53 49 58 67 53 50 46 45 46 49 48 49 48 41 26 12 5 1 359 356 357 357 356 358 1 4 10 14 10 358 348 348 352 5 20 34 49 61 67 67 71
42 45 50 46 47 51 49 47 45 44 44 44 46 49 51 49 35 18 9 3 359 359 1 1 360 357 4 13 15 15 8 356 351 349 347 5 26 32 39 51 65 78 74
43 45 52 49 41 45 48 48 46 45 44 44 43 45 49 50 41 28 13 5 2 3 6 7 7 6 7 15 15 8 2 4 5 1 353 358 24 29 36 48 53 65 77
43 44 51 56 49 43 44 46 48 48 46 45 43 43 45 46 41 33 24 14 10 8 10 10 14 20 15 10 6 6 7 5 2 359 357 3 27 27 27 42 57 61 72
Height
1497 1500 1502 1504 1506 1508 1510 1511 1511 1512 1512 1513 1513 1512 1511 1510 1509 1507 1505 1504 1502 1500 1498 1496 1494 1491 1489 1486 1484 1481 1479 1475 1469 1464 1464 1461 1458 1454 1451 1448 1446 1444 1443
1497 1500 1502 1504 1506 1508 1510 1510 1511 1511 1511 1511 1511 1509 1508 1507 1506 1504 1502 1500 1498 1496 1493 1490 1488 1485 1482 1479 1476 1473 1471 1468 1464 1457 1455 1453 1450 1447 1443 1441 1439 1437 1436
1498 1500 1503 1505 1506 1508 1509 1509 1510 1510 1509 1509 1508 1507 1505 1504 1502 1499 1497 1494 1492 1490 1487 1484 1481 1478 1475 1472 1469 1466 1463 1460 1457 1453 1448 1446 1443 1440 1437 1434 1432 1430 1429
1498 1500 1503 1505 1506 1507 1508 1508 1508 1508 1507 1506 1505 1504 1502 1500 1496 1494 1492 1489 1486 1483 1480 1478 1475 1472 1469 1466 1463 1459 1457 1453 1450 1447 1442 1439 1436 1434 1431 1428 1425 1423 1422
1498 1500 1503 1505 1506 1507 1507 1507 1507 1506 1505 1504 1502 1500 1499 1495 1492 1490 1487 1484 1481 1477 1474 1472 1469 1466 1463 1460 1457 1453 1450 1447 1444 1440 1436 1433 1430 1428 1425 1422 1419 1416 1414
1498 1500 1503 1505 1506 1506 1506 1506 1505 1504 1503 1501 1499 1497 1495 1493 1490 1487 1483 1480 1476 1473 1470 1467 1464 1461 1458 1454 1451 1447 1444 1440 1436 1433 1430 1427 1423 1421 1418 1415 1412 1409 1406
1498 1501 1503 1505 1505 1505 1505 1504 1503 1502 1501 1499 1497 1495 1493 1490 1487 1484 1480 1477 1473 1470 1467 1463 1459 1456 1452 1448 1443 1440 1436 1433 1430 1427 1422 1420 1417 1414 1411 1408 1405 1402 1399
1500 1502 1503 1505 1505 1504 1503 1503 1502 1501 1499 1497 1496 1493 1491 1488 1485 1482 1478 1474 1471 1467 1464 1459 1455 1450 1446 1442 1437 1432 1429 1425 1422 1419 1416 1413 1411 1407 1404 1401 1398 1394 1392
1501 1502 1503 1504 1504 1503 1503 1502 1501 1499 1498 1497 1494 1492 1490 1487 1484 1480 1476 1471 1468 1464 1460 1455 1450 1446 1441 1436 1431 1426 1422 1418 1416 1413 1411 1408 1405 1402 1398 1395 1392 1389 1387
1502 1503 1503 1504 1504 1503 1502 1501 1500 1498 1497 1496 1494 1491 1489 1486 1483 1479 1474 1469 1465 1460 1455 1451 1446 1442 1436 1431 1427 1422 1418 1414 1412 1409 1407 1405 1402 1399 1396 1392 1389 1387 1385
1504 1504 1504 1504 1504 1502 1501 1500 1500 1499 1497 1495 1493 1490 1488 1485 1481 1477 1473 1467 1462 1457 1452 1447 1443 1438 1433 1429 1424 1420 1416 1413 1410 1408 1406 1404 1401 1398 1395 1391 1388 1386 1384
1505 1505 1505 1505 1504 1503 1502 1501 1500 1498 1497 1495 1492 1490 1487 1484 1480 1475 1471 1466 1461 1455 1450 1446 1441 1437 1432 1428 1424 1420 1417 1414 1411 1409 1407 1404 1401 1399 1396 1392 1389 1386 1384
1506 1506 1506 1505 1504 1504 1503 1502 1500 1499 1497 1495 1492 1489 1486 1482 1478 1474 1469 1464 1459 1454 1450 1445 1441 1437 1433 1429 1425 1422 1419 1416 1413 1411 1408 1406 1403 1400 1397 1394 1391 1388 1385
1508 1507 1507 1506 1505 1504 1504 1503 1501 1499 1497 1495 1492 1489 1485 1482 1477 1472 1467 1463 1458 1454 1449 1446 1442 1438 1435 1431 1427 1424 1421 1419 1416 1414 1411 1408 1406 1403 1400 1397 1394 1391 1389
1510 1509 1508 1508 1506 1505 1504 1503 1502 1500 1498 1495 1492 1489 1485 1481 1477 1473 1468 1463 1459 1455 1451 1447 1444 1440 1437 1433 1430 1427 1425 1422 1419 1417 1414 1412 1409 1406 1403 1400 1398 1395 1393
1511 1511 1510 1509 1507 1507 1505 1504 1502 1501 1498 1495 1493 1490 1486 1482 1478 1473 1469 1464 1460 1456 1453 1449 1446 1443 1440 1437 1434 1431 1429 1426 1423 1421 1418 1415 1413 1410 1407 1404 1402 1400 1398
1513 1512 1511 1510 1509 1508 1507 1505 1504 1501 1499 1496 1494 1490 1486 1482 1478 1474 1469 1466 1462 1458 1454 1451 1449 1446 1443 1440 1438 1435 1433 1430 1427 1425 1422 1420 1417 1414 1412 1409 1407 1405 1403
1515 1514 1513 1512 1511 1509 1508 1506 1505 1503 1500 1498 1495 1491 1487 1483 1479 1475 1471 1467 1463 1460 1457 1454 1452 1449 1446 1444 1441 1439 1437 1434 1432 1429 1427 1424 1422 1420 1418 1415 1413 1411 1409
1517 1516 1515 1514 1512 1511 1509 1507 1506 1503 1501 1499 1496 1493 1489 1485 1481 1477 1473 1469 1466 1463 1460 1457 1455 1452 1450 1447 1445 1443 1441 1439 1436 1434 1431 1429 1428 1426 1424 1422 1420 1418 1416
1519 1518 1516 1515 1514 1512 1511 1509 1507 1505 1503 1500 1497 1494 1490 1486 1482 1478 1475 1472 1469 1466 1464 1461 1458 1456 1453 1451 1449 1447 1445 1443 1441 1439 1437 1435 1433 1432 1430 1429 1427 1426 1424
1521 1519 1517 1516 1515 1514 1512 1510 1508 1506 1504 1502 1500 1497 1493 1489 1485 1482 1478 1475 1472 1469 1467 1464 1462 1459 1457 1455 1453 1451 1449 1448 1445 1443 1442 1440 1439 1437 1436 1435 1434 1433 1432
1522 1521 1519 1518 1516 1515 1513 1512 1510 1508 1507 1504 1502 1499 1496 1492 1488 1485 1482 1478 1476 1473 1470 1468 1465 1463 1461 1459 1457 1456 1454 1452 1450 1448 1447 1446 1445 1444 1442 1441 1440 1440 1439
1523 1522 1520 1519 1518 1516 1515 1514 1512 1511 1509 1507 1505 1502 1499 1495 1492 1488 1485 1482 1479 1476 1474 1471 1469 1467 1465 1463 1461 1460 1458 1457 1455 1454 1453 1452 1451 1450 1449 1448 1447 1446 1446
1525 1523 1522 1521 1520 1519 1517 1516 1514 1513 1511 1509 1507 1505 1502 1499 1495 1492 1489 1486 1483 1480 1478 1475 1473 1471 1469 1467 1466 1464 1463 1462 1460 1459 1458 1457 1456 1455 1455 1454 1453 1453 1452
1527 1525 1524 1523 1522 1521 1519 1518 1517 1515 1514 1512 1510 1508 1505 1502 1499 1496 1493 1490 1487 1485 1482 1480 1478 1476 1474 1472 1470 1469 1468 1467 1465 1464 1463 1462 1462 1461 1460 1460 1459 1459 1459
1529 1528 1527 1525 1524 1523 1522 1521 1519 1518 1516 1515 1513 1511 1508 1506 1503 1500 1497 1494 1492 1489 1487 1484 1482 1480 1479 1477 1475 1474 1472 1471 1470 1469 1468 1468 1467 1467 1466 1466 1465 1465 1465